GALAXY 16 (G-16)

Last updated on Fri Dec 19 2025 00:02:49 GMT+0000 (Coordinated Universal Time)

1 29236U 06023A 25352.60569493 -.00000102 00000+0 00000+0 0 9994 2 29236 0.0298 220.8684 0002472 43.4830 302.1634 1.00271500 71160
UTC large
Height (km)
Speed (km/s)
/
Latitude / Longitude
Inclination (degrees)
Orbital Period (minutes)
Azimuth
Elevation
Range (km)
Doppler Factor

Next 0 passes for location: London (51.5072 / 0.1276)

Sorry there are no passes over London.